ECMWFFLT1_925_thetae_024.txt.gz
Theta_e
322 322 322 321 321 320 321 321 322 323 323 323 322 322 321 321 321 321 320 319 319 319 320 321 322 321 321 322 323 324 325 325 326 326 325 326 327 327 326 328 329 328 327 327 327 331 334 335 332 330 327 325 327 328 328 328 327 328 328 328 330 331 331
321 321 321 321 320 320 321 321 321 322 322 321 321 321 320 319 319 319 318 316 315 315 316 317 318 318 318 320 321 322 322 322 324 324 323 324 325 325 324 325 327 328 327 326 327 328 331 333 334 333 328 326 328 327 326 326 324 324 325 325 326 328 329
320 320 321 320 320 320 321 321 320 321 321 321 321 319 317 316 316 315 315 314 314 314 314 315 314 316 317 318 319 320 320 320 320 321 321 321 322 322 322 322 322 324 325 327 328 327 327 328 330 330 327 327 329 327 323 323 323 322 321 320 321 322 323
320 319 320 320 321 320 321 321 320 321 321 321 320 317 315 315 314 314 314 314 315 315 315 316 316 317 317 318 318 319 319 319 319 319 319 320 319 318 318 318 318 319 321 321 321 320 321 322 323 323 321 320 321 319 320 323 322 322 323 323 323 323 323
319 320 321 320 321 321 320 320 320 321 321 320 319 317 316 316 314 314 315 314 315 315 315 316 316 317 317 318 318 318 318 319 319 318 319 319 318 317 316 316 317 317 317 317 317 316 318 319 319 320 318 317 317 316 317 319 319 320 320 320 321 321 320
319 320 321 320 321 321 320 321 321 321 320 320 319 318 317 317 316 316 316 315 314 315 315 315 316 316 316 316 318 317 317 317 317 316 317 317 316 317 316 315 316 316 314 314 315 315 315 316 316 318 318 316 317 317 315 315 315 316 317 317 316 317 317
320 321 322 321 321 322 321 321 321 321 321 319 319 318 316 317 317 317 317 315 314 314 314 315 316 316 316 316 317 317 317 317 316 315 316 315 315 316 315 315 314 314 314 314 314 314 314 314 314 316 316 316 316 316 316 316 314 315 316 316 316 317 319
320 320 322 321 321 321 321 320 320 321 321 320 319 318 317 317 318 318 317 316 314 314 314 314 315 315 316 316 316 316 316 316 315 314 314 314 313 313 314 315 314 313 312 312 313 314 314 313 313 313 314 316 318 317 317 316 315 314 315 315 316 316 318
321 320 321 321 321 321 321 321 320 320 321 320 320 319 316 317 319 318 317 316 315 315 314 314 315 314 315 316 316 316 316 315 315 315 314 314 313 312 313 315 315 312 311 312 313 313 313 313 313 313 313 314 316 317 318 318 318 316 315 314 315 315 315
321 320 320 321 321 320 321 321 320 319 321 321 320 320 317 316 319 319 317 317 316 315 315 315 315 314 314 315 315 316 316 316 316 315 315 315 314 313 312 313 314 311 309 312 313 311 312 313 313 313 313 313 314 315 317 318 318 316 314 314 315 315 315
322 321 319 320 321 320 320 322 320 319 320 321 321 321 318 317 319 319 318 317 316 316 315 315 315 314 315 316 315 315 316 315 314 314 314 314 313 312 312 312 313 312 309 311 313 312 312 313 312 312 313 312 313 314 315 316 316 314 313 313 313 313 314
324 323 321 321 321 321 320 321 321 319 319 320 321 322 319 318 319 319 318 318 317 316 316 316 315 314 315 315 315 315 314 313 314 314 313 312 312 312 312 311 312 312 309 309 311 313 312 311 311 311 310 310 312 313 313 314 315 314 312 312 312 312 313
325 325 324 323 323 323 322 321 321 320 319 320 321 323 321 319 319 319 318 319 318 317 316 316 315 314 314 315 314 315 314 313 314 314 311 312 312 312 312 311 311 310 307 308 310 311 310 311 311 311 310 310 311 312 312 313 314 314 312 312 312 312 312
326 324 323 322 322 323 323 323 321 320 320 320 320 322 322 320 320 319 318 319 319 318 317 316 315 314 314 315 314 314 314 313 313 313 312 311 311 311 311 311 311 311 309 308 308 309 309 310 310 311 311 311 311 311 311 311 312 312 312 311 311 311 311
326 324 322 321 321 322 323 322 322 321 321 320 319 320 321 321 321 320 319 319 319 319 318 316 316 315 315 315 314 315 314 313 313 313 313 311 311 311 310 309 310 311 310 308 307 309 309 308 309 310 310 310 309 310 309 309 310 310 310 310 310 310 310
325 324 323 321 321 321 321 322 323 323 321 321 320 319 319 320 321 320 320 320 319 319 318 317 316 315 315 316 315 315 314 313 313 314 313 312 312 312 311 310 311 311 310 310 310 310 309 309 309 309 309 309 309 308 308 309 310 310 311 311 311 311 311
322 322 322 322 321 320 321 321 322 323 322 322 321 320 320 320 320 320 320 320 320 319 319 318 317 316 315 316 315 315 314 312 312 313 313 312 312 312 311 311 311 311 311 310 309 309 309 309 309 308 308 308 308 308 308 308 308 309 310 310 309 309 309
323 322 321 321 320 320 321 320 320 321 322 323 322 321 321 320 320 320 320 320 320 320 319 319 318 317 316 316 316 316 314 312 313 313 312 312 311 311 311 311 310 310 309 309 309 309 309 308 308 307 307 307 307 307 307 306 307 307 307 308 308 307 308
325 325 324 323 322 322 321 320 319 320 321 322 321 321 321 321 320 320 320 320 320 320 320 319 319 318 317 316 315 315 314 313 313 313 312 312 311 310 310 310 309 309 308 308 308 308 307 307 307 306 306 306 306 306 306 306 307 307 307 307 308 307 308
325 325 324 324 324 323 322 320 319 318 319 320 319 319 320 321 319 319 320 320 320 320 321 320 319 318 318 317 316 315 314 313 313 313 312 311 311 309 309 309 308 307 307 307 306 307 307 306 304 304 304 303 303 303 303 304 304 305 305 305 306 307 307
320 321 321 321 323 324 323 322 322 321 321 321 319 319 321 321 320 319 320 321 320 319 320 320 320 319 318 317 316 315 314 313 313 312 312 311 310 309 308 307 307 306 306 305 305 306 304 300 298 298 299 299 300 301 301 302 302 303 303 304 304 305 305
314 316 316 318 320 322 323 323 323 323 323 323 322 322 322 321 321 320 320 320 320 320 320 320 319 319 318 318 317 315 314 314 313 312 312 311 309 308 308 306 305 306 305 305 305 304 301 297 294 294 294 295 297 299 300 300 301 302 302 303 303 303 304
312 313 313 314 315 317 318 320 322 323 323 323 323 322 322 321 321 320 320 320 320 320 320 320 319 318 318 319 317 315 315 314 313 312 312 310 308 307 306 305 305 305 304 304 304 302 299 298 296 295 295 296 296 297 297 298 298 299 300 300 301 301 302
310 310 311 312 313 313 314 315 318 319 320 321 321 322 322 322 322 321 321 321 320 320 320 320 319 319 319 319 317 316 315 314 313 312 311 309 307 307 306 305 305 305 304 303 302 301 300 300 298 297 298 298 298 298 298 298 298 298 298 299 299 300 300
308 309 309 310 310 311 312 312 314 314 315 317 318 320 321 322 322 322 322 322 322 321 321 320 320 319 319 318 317 315 314 314 313 312 310 308 307 307 306 305 305 305 304 303 302 302 301 300 299 299 300 300 299 299 299 298 298 298 298 299 299 299 299
307 308 309 309 309 309 310 311 311 312 313 315 316 317 319 319 320 321 322 322 322 322 322 320 319 319 318 317 315 314 314 313 312 310 309 308 307 306 306 305 304 304 304 303 302 302 301 300 300 300 300 300 299 299 299 299 299 299 299 299 299 299 299
308 308 308 308 308 309 309 309 310 311 312 313 314 315 317 317 318 319 320 321 321 322 321 320 319 319 318 316 315 314 312 311 310 308 308 307 306 305 304 304 303 303 303 303 302 301 301 301 301 300 299 299 299 299 299 299 299 300 300 300 299 299 299
308 308 308 308 308 308 309 309 310 310 311 312 312 313 314 316 317 318 319 319 320 320 320 319 319 318 317 315 314 312 310 309 308 307 306 306 305 304 303 303 302 302 302 301 301 301 300 301 300 299 298 298 297 297 298 298 299 299 300 300 299 300 300
309 309 309 308 308 308 308 309 309 310 311 312 312 312 313 314 315 316 317 318 319 319 319 318 318 317 315 314 312 310 309 308 306 305 304 304 303 303 302 302 302 302 301 301 301 301 301 300 300 298 298 297 297 297 297 297 298 298 298 299 299 299 299
308 308 308 308 308 308 308 309 309 309 310 311 312 313 312 313 314 315 315 317 318 318 317 317 316 315 313 312 310 308 307 306 304 303 302 302 302 302 302 302 302 302 302 302 302 302 300 300 299 298 297 297 297 297 297 297 297 297 297 297 297 297 298
308 308 308 308 307 307 307 308 308 309 309 309 310 312 313 313 313 314 314 315 317 317 316 315 313 311 310 309 307 306 305 304 302 301 301 301 301 302 302 302 302 301 301 301 301 300 299 299 298 297 297 297 297 297 297 296 296 296 296 296 296 296 297
307 307 308 308 308 308 308 307 308 308 308 309 310 311 312 312 313 313 314 315 315 315 315 313 310 308 307 306 305 304 303 302 302 301 301 301 301 301 301 301 301 300 300 300 299 298 298 297 296 296 296 295 296 296 296 296 295 295 295 294 294 294 294
307 307 308 308 308 309 308 308 308 308 309 310 310 311 312 312 312 312 312 313 313 313 312 310 306 305 305 303 303 302 301 300 300 300 300 300 300 300 300 299 299 298 298 298 297 296 296 295 295 294 294 294 293 294 294 294 293 293 292 292 292 292 292
306 306 307 308 308 308 308 308 309 309 309 309 310 312 312 312 311 309 309 310 309 309 309 307 303 301 301 301 300 300 299 299 299 299 299 299 298 298 297 297 297 297 297 297 296 296 295 294 294 293 292 292 291 291 291 291 291 290 290 290 290 290 290
306 306 306 307 308 308 308 308 309 309 310 310 312 313 312 310 309 307 306 306 306 306 305 303 299 297 298 298 298 298 298 297 297 298 298 297 295 295 295 296 296 297 296 296 296 295 294 293 292 292 291 291 291 291 290 290 290 290 290 290 290 290 290
306 306 306 307 308 309 309 309 309 310 310 311 313 312 310 308 306 304 302 301 302 302 299 297 297 297 297 297 297 296 296 296 295 295 294 293 293 294 295 296 297 297 296 295 295 294 293 292 292 292 292 291 291 291 290 290 290 290 290 290 290 290 291
305 305 306 306 307 308 309 309 309 310 310 311 312 311 308 307 305 303 300 298 297 296 296 296 297 297 297 296 295 295 295 294 293 293 293 293 294 295 296 296 296 296 295 295 294 293 292 292 292 292 292 292 291 291 291 291 290 290 291 291 291 291 291

ECMWFFLT1_925_thetae_027.txt.gz
Theta_e
321 321 321 321 320 320 321 323 323 322 322 321 320 320 319 320 319 317 316 318 319 320 321 320 321 323 324 324 324 325 326 326 326 327 328 327 327 326 327 328 328 328 327 328 329 331 334 335 331 330 327 324 326 326 326 326 327 327 326 325 327 329 330
321 321 320 320 319 320 322 323 322 321 320 319 319 318 317 318 319 316 314 315 315 315 316 316 317 319 321 321 321 322 323 324 324 325 326 325 324 323 325 325 327 328 328 328 328 327 331 334 333 333 328 324 326 326 325 327 326 325 324 323 323 325 328
321 320 319 320 320 321 321 320 320 320 320 319 317 316 314 315 315 315 315 315 315 315 314 314 315 317 318 319 319 319 319 320 321 322 322 321 320 320 320 320 323 326 327 326 324 322 325 327 327 326 322 322 325 322 321 325 326 323 322 322 321 321 321
321 320 319 320 320 320 320 320 321 320 320 317 314 313 313 313 314 314 314 315 315 315 316 316 318 318 318 318 318 318 318 319 319 319 318 317 316 317 317 317 317 320 320 319 317 318 319 320 322 321 317 317 319 316 315 319 320 321 322 321 321 322 322
320 320 319 320 320 320 320 321 321 321 318 316 314 312 311 313 314 313 313 314 314 315 317 317 317 317 317 318 318 318 318 318 318 319 316 315 316 315 315 315 315 314 314 314 314 315 315 315 318 317 315 316 317 315 314 314 315 317 319 319 320 321 323
319 319 318 319 320 319 320 321 321 320 318 317 315 313 312 313 315 314 313 314 314 315 315 315 314 314 314 315 316 315 315 314 316 318 317 315 315 314 314 314 313 313 313 314 314 314 314 314 314 314 313 314 316 316 315 315 315 315 315 317 320 322 324
320 319 319 320 320 319 320 321 320 320 319 318 316 315 314 315 316 315 313 312 313 313 314 315 316 315 314 312 313 314 313 310 310 313 315 316 315 314 314 313 312 313 313 313 314 313 313 313 312 313 313 313 314 314 313 315 315 315 314 315 318 320 322
320 320 319 320 320 319 320 320 320 320 319 318 317 315 315 317 317 315 312 310 311 311 313 316 316 316 314 312 311 312 311 310 308 307 310 313 314 314 313 312 311 311 312 313 312 311 312 313 312 312 313 315 318 316 314 314 314 313 314 313 315 316 315
320 320 320 321 321 320 320 321 320 321 320 319 319 316 315 317 317 315 312 310 309 308 312 315 315 315 314 311 310 311 312 312 310 306 307 310 314 314 313 312 310 310 313 313 311 310 311 313 313 312 312 313 317 318 316 317 316 313 311 311 312 313 312
321 321 320 320 321 321 320 320 320 321 320 319 320 318 315 316 317 315 313 312 309 307 311 314 314 314 314 313 313 315 316 315 313 310 308 308 311 313 313 312 311 309 311 312 310 310 311 312 312 312 312 311 313 315 317 319 318 313 311 311 311 311 311
321 321 321 320 320 322 320 319 320 321 321 320 320 319 316 315 316 317 315 314 312 309 310 314 314 313 314 314 314 315 315 314 314 314 312 308 308 311 313 313 312 309 309 311 311 310 310 311 311 310 311 311 312 314 314 316 317 313 310 311 311 311 311
320 319 321 320 320 321 321 319 319 320 321 320 320 320 318 317 316 317 316 315 315 312 311 314 314 313 314 315 314 315 313 311 313 314 312 310 307 309 311 312 312 309 308 311 312 311 310 310 310 309 309 310 310 312 312 313 315 314 311 311 311 310 310
319 318 321 321 319 320 321 320 319 319 320 321 320 321 320 319 318 317 317 317 317 316 313 314 315 313 314 315 314 314 313 312 314 312 310 310 309 309 310 310 310 308 307 310 311 310 310 310 310 310 310 310 310 311 311 311 313 313 310 310 309 308 308
322 320 321 322 319 320 321 321 320 319 320 320 320 321 321 321 320 318 318 317 317 318 316 314 315 313 314 315 314 314 313 312 314 312 310 311 310 310 311 311 310 309 306 306 308 309 309 309 309 310 310 311 310 310 309 309 310 310 309 308 308 308 308
324 324 323 323 321 321 321 321 321 320 320 320 320 320 321 321 321 320 319 318 318 318 318 316 315 314 313 314 314 314 314 313 314 313 311 311 310 309 311 311 310 311 308 305 306 308 309 308 308 309 309 309 308 308 308 307 308 309 309 309 309 309 309
325 324 323 323 323 322 322 322 321 320 320 320 320 320 320 319 320 320 320 320 319 319 319 318 317 315 314 314 314 314 314 313 313 313 312 312 310 309 309 309 310 311 310 306 306 308 308 308 309 309 309 308 307 307 307 308 308 308 308 308 308 307 307
324 323 322 322 322 322 322 322 322 321 320 320 320 320 319 319 320 320 320 320 320 319 319 319 318 317 315 314 314 314 315 314 313 313 313 312 311 310 310 309 309 311 310 308 308 308 308 309 309 309 308 307 307 307 306 306 306 306 307 307 306 306 306
323 323 322 322 321 321 321 322 322 321 321 321 321 321 320 320 320 320 320 320 320 319 320 319 319 318 318 316 315 315 315 315 313 312 313 313 312 311 312 310 310 311 311 310 309 308 308 309 309 307 306 306 306 306 305 306 306 306 306 306 305 305 305
323 323 322 321 321 320 321 321 321 321 321 321 322 322 321 321 320 321 321 321 321 320 320 320 319 319 318 317 316 315 315 315 314 312 312 313 312 311 312 311 310 310 310 309 308 308 308 308 307 306 304 304 304 304 304 304 304 304 304 303 303 303 304
324 325 324 322 321 321 320 320 320 320 319 319 321 321 321 322 321 320 319 320 321 321 320 320 320 319 318 317 316 316 315 315 315 314 312 313 312 311 311 311 310 310 309 308 308 307 307 307 306 303 301 301 302 301 301 301 301 301 302 302 302 302 302
323 324 324 324 323 323 322 321 321 320 319 318 319 320 320 321 320 318 317 318 320 320 320 320 320 320 319 318 317 316 316 315 315 314 313 313 312 311 311 310 309 308 308 307 307 306 306 306 304 300 297 296 297 296 296 298 299 300 300 299 299 299 299
316 317 319 320 322 323 322 322 322 321 321 321 320 320 319 319 319 318 317 318 320 320 319 319 320 320 319 319 318 317 316 315 315 314 313 312 312 311 311 310 309 308 307 307 306 305 305 304 302 299 296 295 294 294 294 296 296 297 297 297 296 297 297
313 314 315 316 318 320 320 321 321 321 321 320 321 321 321 321 321 320 320 320 321 320 320 320 320 319 319 320 319 318 317 316 315 314 313 312 312 311 310 310 309 307 306 306 305 304 304 304 302 299 298 297 296 297 297 297 297 297 297 297 297 297 298
311 312 312 313 314 315 316 317 318 320 321 320 320 321 321 322 322 322 322 322 321 321 320 320 319 319 320 320 319 319 318 317 315 314 313 312 312 311 310 309 308 307 306 305 304 304 304 303 302 300 299 298 299 299 299 298 298 298 298 298 298 298 298
308 309 310 310 310 311 312 313 314 316 317 317 318 320 321 322 321 321 322 322 321 321 321 321 320 320 320 320 320 319 318 317 316 314 313 312 312 311 309 308 307 306 305 305 305 304 304 303 302 300 299 300 300 299 299 299 298 298 298 298 298 298 298
307 308 309 309 309 309 310 310 310 311 311 312 314 316 317 319 320 321 322 322 321 321 321 321 321 321 321 320 320 319 318 318 316 314 313 312 311 310 308 307 307 305 305 305 305 304 303 302 301 300 300 300 300 299 299 298 298 298 298 298 298 298 299
307 308 308 308 308 308 308 308 309 309 309 310 311 312 312 314 316 318 319 320 320 320 320 320 321 321 321 321 320 319 318 317 316 314 313 312 311 310 308 307 306 305 305 305 304 303 303 302 302 301 301 300 300 299 298 297 297 297 297 297 298 298 298
308 308 308 307 307 307 307 308 308 309 309 310 310 311 311 311 312 313 315 316 317 318 319 319 319 320 320 320 319 317 316 315 314 313 312 311 310 308 307 306 305 305 304 303 303 302 302 301 301 301 300 299 299 298 298 297 297 296 296 297 297 297 298
308 309 308 308 307 307 307 307 308 308 308 309 309 310 311 311 311 312 313 314 315 316 317 318 318 319 319 319 318 315 313 313 312 311 310 309 308 306 305 305 304 303 303 302 302 301 301 301 301 301 300 299 298 298 297 297 297 297 297 297 297 297 297
308 308 308 308 308 307 307 307 308 308 308 308 308 309 309 310 311 312 312 313 314 316 317 317 318 319 318 318 316 313 312 311 310 308 307 306 306 305 304 304 303 303 302 302 302 302 302 302 301 300 299 298 298 297 297 297 297 297 296 296 296 296 296
307 307 308 308 308 307 307 307 307 307 307 307 307 307 308 308 310 311 312 312 313 315 317 318 318 318 317 315 313 312 310 309 307 306 305 304 304 304 303 303 302 302 302 302 302 302 302 301 300 298 298 297 296 296 296 296 295 295 295 295 295 295 294
306 307 307 307 307 307 307 307 307 306 306 307 307 307 308 308 310 311 311 312 314 315 316 317 317 317 315 312 310 309 308 306 305 303 303 303 303 303 302 302 302 302 302 301 301 301 300 299 297 297 296 295 295 295 294 294 293 293 292 292 292 292 291
306 306 306 306 307 307 307 308 308 307 307 307 307 308 309 310 311 311 311 312 313 314 315 315 313 313 312 310 307 306 305 305 304 303 302 302 301 301 300 300 299 299 299 299 299 298 297 296 296 295 295 294 294 293 293 292 292 291 291 291 290 290 290
306 306 306 306 307 307 308 308 308 308 308 307 308 309 310 310 310 310 310 311 312 312 312 312 310 308 308 308 306 305 305 303 302 301 300 300 299 298 297 297 296 296 296 297 297 296 296 296 295 295 294 293 293 292 292 291 291 291 291 291 290 290 290
306 306 305 306 306 307 308 308 308 308 307 307 309 310 310 309 308 308 308 308 309 309 309 309 307 305 304 304 304 303 303 301 300 300 299 299 298 297 295 295 295 296 296 296 296 296 295 295 294 293 293 293 292 292 292 291 291 291 291 291 291 290 290
305 305 305 305 306 306 306 307 307 307 307 308 310 310 309 308 306 306 305 306 307 306 304 304 304 303 302 302 301 301 300 299 298 298 297 296 295 294 294 295 296 296 296 296 296 295 294 293 293 293 293 292 292 292 292 292 292 291 291 291 291 291 291
304 304 304 304 305 305 305 306 307 307 308 310 311 309 308 307 306 305 304 304 303 302 300 299 300 300 300 300 300 299 298 298 297 296 295 293 293 293 294 295 296 296 296 295 295 294 293 293 293 293 293 292 292 292 292 292 292 292 292 292 291 291 291

ECMWFFLT1_925_thetae_030.txt.gz
Theta_e
321 322 322 321 321 320 319 319 319 319 319 319 319 319 317 318 320 320 321 323 324 323 323 324 323 324 324 325 326 326 326 327 328 327 326 327 327 325 327 328 328 328 328 328 328 328 332 332 329 328 326 324 325 324 325 326 325 327 328 327 326 327 328
321 322 321 321 320 321 321 321 321 320 319 318 318 318 317 316 317 317 317 318 319 321 322 322 322 322 322 322 324 324 324 325 327 326 325 325 324 324 325 326 327 328 327 326 326 326 330 332 331 329 323 320 323 320 322 325 326 326 327 327 325 324 326
321 321 320 320 321 322 322 321 320 319 317 316 316 317 317 315 315 315 313 313 313 314 317 320 320 320 320 320 321 322 324 324 324 323 321 320 320 320 322 323 325 327 324 320 320 322 325 325 325 323 317 317 320 317 316 319 321 323 325 326 326 325 325
321 320 320 322 323 322 321 319 318 317 316 314 314 314 315 315 315 314 313 314 313 312 313 314 316 317 318 318 319 320 321 321 319 317 317 317 317 317 318 319 321 322 318 316 315 317 318 318 321 320 314 314 316 315 314 315 315 317 320 322 325 326 326
320 319 320 322 322 321 319 318 318 317 315 313 312 312 313 314 315 314 314 315 316 316 315 313 313 314 316 317 318 318 318 317 316 316 316 315 316 315 315 315 316 316 314 314 314 314 314 315 317 316 313 314 317 315 314 314 314 315 315 317 319 321 323
320 318 320 322 321 320 318 318 318 316 313 312 311 311 311 312 313 313 314 316 316 315 315 314 313 314 315 316 316 317 318 317 315 315 315 315 315 314 313 312 313 313 313 313 313 313 313 313 312 313 312 313 315 314 314 314 313 314 313 312 313 314 316
319 318 320 321 320 319 319 319 318 314 311 310 310 311 310 310 310 310 312 314 314 314 315 315 313 311 312 312 312 312 315 317 316 314 314 314 314 313 312 311 312 313 313 313 312 312 311 311 311 311 311 312 312 311 312 313 312 312 312 311 311 312 313
318 318 320 320 319 320 320 319 317 313 310 309 309 311 311 309 307 307 308 310 312 314 315 315 313 310 309 309 309 308 310 312 314 314 313 313 313 312 311 311 312 312 311 310 311 311 311 311 311 311 311 313 316 314 311 312 311 310 310 310 310 311 310
319 318 319 320 319 320 320 319 318 315 312 310 310 310 311 309 307 306 305 307 311 314 315 314 313 310 307 307 308 309 308 308 310 313 314 313 313 311 310 309 310 311 310 307 308 311 312 312 312 312 311 311 316 320 317 316 314 310 310 310 310 309 309
319 318 318 318 319 320 320 319 319 317 315 313 311 311 312 311 309 307 305 306 311 314 314 314 313 310 307 306 307 308 308 307 307 311 313 313 312 311 310 309 309 310 309 308 309 310 312 311 311 311 312 310 313 317 319 321 318 312 310 310 309 308 307
319 318 318 318 319 319 320 320 319 319 318 316 313 312 313 313 311 310 307 306 309 312 313 313 312 311 310 308 308 308 308 308 306 307 310 312 312 312 311 309 308 309 310 309 309 309 309 309 309 309 311 311 311 313 314 317 318 313 310 311 309 307 306
319 319 319 319 319 319 320 320 320 319 319 318 316 314 314 314 313 312 310 309 308 309 311 313 313 312 312 312 310 310 310 309 307 305 306 309 310 311 311 308 308 309 311 311 310 309 309 309 310 309 309 310 310 311 311 312 315 313 310 309 308 307 307
320 319 319 319 320 320 320 320 320 320 319 319 318 317 316 315 315 314 313 312 311 309 309 311 312 311 313 314 313 311 311 309 309 308 307 307 309 310 310 308 307 307 310 312 311 309 309 310 310 309 310 310 309 310 310 310 312 311 309 308 308 308 308
320 320 320 320 321 321 320 320 320 320 320 319 319 318 317 317 317 316 315 314 314 313 311 311 312 311 311 314 314 313 312 311 310 311 309 307 308 310 310 310 310 308 307 309 310 309 308 309 309 309 310 309 308 308 308 308 308 308 307 307 308 307 307
320 321 320 320 320 321 320 319 319 320 320 320 319 319 319 318 318 318 318 317 316 316 315 313 313 312 311 313 314 313 313 312 311 312 311 309 308 309 310 310 311 310 307 306 307 308 308 308 309 309 309 308 307 307 307 307 307 307 307 307 307 307 306
320 320 321 321 320 321 320 319 319 320 320 320 320 319 320 319 319 319 318 318 317 317 317 316 315 315 313 312 313 313 314 312 311 312 312 311 309 308 309 310 310 310 310 307 306 307 308 308 308 309 308 307 307 307 306 306 306 306 306 306 306 305 305
321 320 320 320 320 321 321 319 319 319 319 320 320 319 320 319 319 319 318 318 318 318 318 318 317 317 316 315 314 313 313 313 312 312 312 312 311 310 309 309 309 309 309 308 306 305 307 308 309 309 308 308 307 306 306 305 305 304 304 304 304 304 303
320 321 320 321 320 320 321 320 320 321 320 320 320 320 320 320 320 320 319 319 319 319 319 318 318 318 318 317 316 314 314 313 313 313 313 312 312 312 311 309 309 309 309 309 308 306 306 308 309 309 308 307 305 303 303 302 302 303 302 302 302 301 300
319 320 321 321 321 320 321 321 321 322 321 321 321 320 321 320 320 320 320 320 320 319 319 319 319 319 319 318 317 316 315 314 314 314 314 313 312 312 313 311 310 310 309 309 309 307 306 307 308 308 307 304 300 298 298 298 299 299 299 299 299 298 297
321 320 321 321 320 320 321 320 320 321 321 321 322 322 321 321 321 321 321 320 320 320 320 319 319 319 319 319 318 317 316 315 315 314 314 313 312 312 313 312 311 311 310 309 309 308 307 307 307 307 305 300 297 296 295 295 295 296 296 297 296 296 295
322 321 322 321 321 320 320 320 319 320 320 321 321 321 321 320 321 321 321 321 320 319 319 319 320 319 319 319 318 318 317 316 315 315 315 314 313 312 312 312 311 311 311 309 308 308 307 306 306 305 303 300 298 296 295 294 295 295 296 296 296 296 297
323 323 323 322 323 322 321 321 320 320 320 320 320 320 320 320 320 320 320 320 319 318 317 318 320 319 319 319 318 318 317 316 316 315 315 315 313 313 312 312 311 311 310 309 308 308 307 305 305 304 303 301 299 297 296 296 296 297 297 297 297 297 298
321 321 321 321 321 321 321 320 321 320 320 320 320 320 320 320 321 321 320 320 319 319 318 319 320 320 319 319 319 318 318 317 316 315 315 315 314 313 312 312 311 311 310 309 308 307 306 305 304 304 303 301 299 298 298 298 298 298 298 298 298 298 298
315 316 316 317 317 318 319 320 320 320 320 320 319 320 320 320 321 321 321 321 321 321 320 320 321 320 320 320 319 319 318 318 317 316 315 315 314 313 312 311 311 310 310 309 308 307 306 305 304 303 303 302 300 299 299 299 299 298 298 298 297 297 297
313 313 312 313 314 315 316 316 316 316 316 316 316 317 318 318 319 320 321 321 321 321 321 321 321 321 321 320 320 319 319 319 318 317 316 315 314 313 312 311 311 310 309 309 308 307 305 304 304 304 303 302 300 300 300 300 299 298 298 298 297 297 297
309 310 310 310 310 310 310 310 311 310 311 311 311 312 313 314 314 315 317 319 320 320 320 320 321 320 320 320 320 320 320 319 319 318 317 315 314 313 312 311 310 309 309 309 308 306 305 304 304 304 303 301 300 300 300 300 299 298 297 297 297 296 296
308 308 308 308 308 308 308 308 308 308 309 309 309 310 310 311 311 311 312 314 316 316 317 317 317 318 319 320 320 320 320 319 319 318 317 316 314 313 312 311 310 309 308 307 306 305 305 304 304 303 302 301 301 301 301 300 299 298 297 297 297 296 296
307 307 307 307 307 307 307 307 307 308 308 308 309 309 310 310 310 310 311 312 312 314 315 315 315 315 317 319 320 320 320 319 319 318 317 316 314 313 311 310 309 308 307 307 306 305 304 303 303 302 301 301 301 300 300 299 298 297 297 297 297 297 297
307 307 308 307 306 306 306 307 307 307 307 307 307 307 308 308 309 309 310 311 311 312 313 313 314 315 316 318 319 319 319 318 317 316 315 314 312 311 310 309 308 308 307 306 304 304 303 302 302 301 301 300 300 299 299 298 297 297 297 297 297 296 296
307 308 308 308 307 306 307 307 306 307 307 307 307 306 307 307 307 307 308 309 310 311 311 311 313 314 316 317 318 318 318 316 314 313 312 311 311 310 309 307 307 306 305 304 303 302 302 301 301 301 300 299 299 298 298 297 297 296 296 296 296 296 295
307 308 308 307 308 307 307 307 307 307 307 306 306 306 306 306 306 307 307 308 309 310 310 311 312 314 317 318 317 317 315 314 311 310 309 308 308 307 305 304 304 303 303 302 302 302 302 302 301 301 300 299 298 297 297 296 296 295 295 294 294 294 293
306 306 306 307 307 307 307 307 307 307 306 306 306 306 306 306 307 307 308 308 309 310 310 311 313 315 317 317 316 315 314 312 309 308 306 305 304 304 303 302 302 303 303 302 302 302 301 301 300 299 298 297 296 296 295 295 294 293 293 293 292 292 292
306 306 306 306 307 306 306 306 306 306 307 307 307 307 307 307 307 307 308 309 310 311 312 313 314 316 316 316 314 313 311 310 308 305 304 303 303 302 302 302 302 302 302 301 301 300 299 298 297 297 296 296 295 294 294 293 292 292 292 292 292 291 292
306 306 306 306 305 305 305 306 306 306 307 308 307 307 307 307 307 307 308 309 310 311 313 313 313 314 313 312 311 310 309 308 306 304 303 302 302 301 301 300 299 298 298 298 297 297 296 296 296 296 295 294 294 293 292 292 292 292 292 292 292 292 292
305 305 306 306 306 306 305 305 306 307 308 308 307 307 307 307 307 308 308 309 310 310 311 310 310 310 309 308 307 307 306 305 303 303 302 300 299 298 298 297 297 296 296 296 296 296 296 296 295 295 294 293 293 292 292 292 292 292 292 292 292 291 291
304 304 304 304 304 305 305 305 306 307 308 307 307 307 307 307 307 308 308 308 309 309 308 307 306 305 305 305 305 304 304 303 301 301 301 299 297 297 296 296 296 295 295 296 296 295 295 294 294 293 293 293 293 292 292 292 292 292 291 291 291 291 291
304 303 303 303 303 303 304 304 305 306 307 307 307 307 307 307 307 308 308 308 308 307 305 303 302 302 302 302 302 302 301 300 299 299 299 297 295 295 295 295 295 296 296 296 295 294 293 293 293 293 293 293 293 292 292 292 291 291 291 291 290 290 290

ECMWFFLT1_925_thetae_033.txt.gz
Theta_e
316 317 321 321 321 321 320 320 320 319 319 318 319 320 321 322 321 321 324 324 323 323 323 323 324 325 326 326 327 327 328 328 328 328 326 327 328 327 327 327 327 328 327 326 326 326 330 331 327 325 323 323 323 321 320 323 325 326 328 329 328 328 328
315 318 321 322 320 320 319 319 319 319 318 318 318 319 320 320 320 321 323 323 322 322 322 322 322 322 323 324 324 325 326 327 326 326 326 326 326 326 327 326 327 327 325 325 326 325 327 330 329 324 319 319 317 315 316 320 322 324 326 327 328 328 328
318 320 321 320 319 318 318 319 319 318 318 317 316 316 317 317 317 317 318 319 320 321 321 321 320 320 321 322 324 324 324 323 323 323 322 322 323 324 325 326 327 325 321 319 321 323 323 323 324 321 316 318 318 314 313 316 318 320 322 322 324 325 326
319 321 320 319 319 319 320 320 319 317 316 316 316 316 315 315 315 314 312 313 316 318 319 319 318 319 319 321 323 322 320 319 319 319 318 319 319 321 323 326 326 324 321 318 317 319 319 318 320 318 313 315 316 314 312 312 313 315 316 316 318 321 324
319 319 318 319 320 321 320 319 317 315 314 315 315 316 315 316 316 313 310 310 312 314 315 316 317 318 318 319 320 319 317 316 316 316 316 317 318 319 319 321 322 321 320 319 317 317 316 316 317 315 312 313 315 313 312 311 311 312 312 313 314 316 318
318 317 317 317 320 321 319 317 316 314 313 313 314 315 315 315 314 310 310 312 312 312 312 313 315 316 317 318 318 317 316 315 316 316 315 315 315 315 315 315 315 314 314 314 314 314 314 313 313 312 312 313 313 313 312 311 311 311 310 310 310 311 312
318 317 315 316 318 320 318 316 315 314 312 311 312 314 314 314 312 310 310 311 311 311 310 309 310 313 314 315 317 316 315 314 314 314 314 313 313 313 313 313 313 312 312 311 311 310 311 310 310 310 311 311 311 311 311 310 310 311 310 310 309 308 309
318 317 315 315 318 319 317 314 314 314 312 310 311 312 313 312 310 310 310 310 310 310 308 306 306 307 307 309 312 315 315 314 313 313 313 312 311 311 311 312 311 310 310 311 310 310 310 310 309 309 309 311 310 309 309 309 309 310 310 310 308 306 306
319 317 316 316 318 319 316 314 314 313 311 309 310 311 311 311 310 310 310 309 310 310 307 306 305 305 305 304 306 309 312 314 313 313 312 311 310 309 310 310 308 308 310 311 311 311 310 310 311 310 309 310 310 312 315 315 311 310 309 309 308 306 306
319 317 315 315 317 319 317 316 316 313 310 309 309 310 310 310 309 310 310 310 311 310 309 307 306 304 305 305 304 304 307 311 312 312 312 311 310 307 307 308 306 307 310 311 311 310 309 308 309 310 310 309 309 315 320 319 313 310 309 308 308 307 307
319 317 315 313 317 319 317 318 317 314 310 309 309 310 310 310 308 308 310 311 312 312 311 309 307 306 305 306 306 304 305 307 310 312 312 311 309 308 307 307 307 307 309 309 309 309 309 309 309 309 310 309 309 311 314 314 313 311 309 308 308 307 307
320 318 316 314 317 319 317 318 318 316 313 311 310 311 312 311 309 307 308 310 312 312 312 311 309 307 307 306 306 306 306 306 307 309 311 310 309 308 307 307 308 309 309 308 309 309 309 309 310 310 310 309 309 309 309 310 311 310 308 308 307 306 306
319 318 317 316 317 318 317 318 319 318 317 314 311 312 313 313 311 308 307 307 310 311 311 311 310 309 309 308 306 306 306 306 306 306 308 309 310 309 307 306 307 309 310 309 308 309 309 309 309 310 310 309 308 308 307 307 308 308 307 307 306 305 305
320 318 318 317 317 317 316 318 318 319 319 317 314 313 313 314 313 311 309 307 309 310 310 311 310 310 310 311 309 307 306 307 306 306 306 307 309 310 308 307 307 307 308 309 309 309 308 308 308 309 309 308 307 306 306 306 306 306 306 306 305 304 303
319 318 318 318 317 317 317 318 319 319 319 318 318 316 315 315 314 313 312 310 310 310 311 312 312 311 311 312 312 311 309 308 308 307 307 306 307 309 309 308 308 307 306 306 308 308 308 308 308 308 308 307 307 306 306 306 305 305 305 304 303 302 300
320 319 319 318 318 318 318 319 319 319 320 319 319 318 318 317 316 315 315 313 313 312 312 312 313 312 312 311 313 313 312 311 310 309 309 307 307 308 308 308 309 309 307 306 305 307 308 307 308 308 308 307 306 305 304 303 303 303 302 302 300 299 297
320 320 319 319 319 319 319 319 319 319 320 319 319 319 318 317 317 317 317 316 315 315 314 313 313 314 313 312 313 313 313 313 312 310 310 309 309 308 308 308 308 309 309 307 305 305 306 307 308 308 307 307 305 302 300 299 299 299 299 298 297 296 295
320 320 320 320 320 320 320 319 319 320 320 320 319 319 319 317 316 317 317 318 317 317 317 316 315 315 315 313 313 313 313 313 313 312 311 311 311 310 309 309 308 308 308 307 306 305 305 306 307 307 307 307 303 299 297 297 296 295 295 295 295 295 295
320 320 320 320 320 320 320 319 319 320 319 319 319 319 319 318 317 317 317 318 318 317 318 318 317 317 317 316 316 315 314 313 313 313 313 312 312 312 311 311 310 309 308 308 307 306 305 305 305 305 306 305 302 299 299 297 295 295 294 295 295 295 295
321 320 319 319 320 320 320 320 320 320 319 319 319 319 319 319 318 317 316 317 317 318 318 318 318 318 318 318 317 317 316 315 315 314 314 314 313 313 312 312 311 311 310 309 309 308 307 306 305 304 304 303 302 301 300 298 296 296 296 296 296 296 296
321 320 319 320 320 320 320 321 320 320 320 320 320 320 319 319 319 318 317 317 316 317 318 319 319 319 319 319 318 318 317 317 316 316 315 314 314 313 313 312 312 312 311 311 310 309 308 307 306 305 304 303 302 302 300 298 297 297 297 297 296 296 296
320 320 320 320 320 320 320 320 320 319 320 320 319 319 319 319 319 319 318 318 317 318 319 319 319 319 318 319 319 319 318 318 318 317 316 315 314 314 314 313 312 312 311 311 311 310 309 307 306 305 304 303 302 302 300 299 298 298 298 297 297 297 297
320 320 320 320 320 320 319 319 320 319 318 318 318 318 318 317 317 318 318 318 318 319 320 319 319 318 318 319 319 319 319 319 318 318 317 316 315 315 314 313 313 312 312 311 311 310 309 307 306 305 304 303 302 302 300 299 299 299 298 298 297 297 297
322 321 321 321 320 319 319 319 320 319 319 318 318 318 318 317 318 318 319 319 320 321 320 320 320 320 320 320 319 319 319 319 318 318 317 316 315 316 315 314 314 313 312 311 311 310 308 307 306 304 303 303 302 301 300 300 300 299 299 298 298 297 297
322 322 321 320 320 319 320 321 321 320 320 319 319 318 318 318 317 317 317 318 319 320 320 321 320 321 321 320 320 320 319 319 319 318 317 317 316 315 315 314 314 313 312 311 311 309 308 306 305 304 304 304 303 301 300 300 300 300 299 298 298 297 297
317 317 316 315 316 316 316 317 317 316 316 315 314 314 313 313 313 312 312 313 314 316 317 318 319 319 319 319 320 320 319 319 319 319 318 318 317 317 316 315 314 313 312 311 310 309 307 305 305 304 304 303 302 301 300 300 300 300 299 299 298 297 297
311 311 311 311 311 311 310 310 309 309 309 309 309 309 309 310 310 310 310 310 311 312 313 314 315 316 316 316 317 319 320 320 320 319 319 319 318 318 316 315 313 312 312 310 309 307 307 305 305 305 304 303 302 301 301 300 300 300 299 298 298 297 297
308 308 309 308 308 307 307 307 307 308 308 308 308 308 308 308 308 308 308 309 309 310 310 311 312 313 313 314 315 317 319 319 319 319 319 319 318 318 316 314 312 311 311 309 308 307 306 305 305 304 304 303 302 301 300 300 300 299 299 298 298 297 297
307 307 307 307 306 306 306 306 306 307 306 307 307 307 306 306 306 306 306 307 307 308 309 309 310 310 311 312 314 316 317 318 318 318 317 317 317 317 316 314 311 310 309 309 307 306 305 305 305 304 303 302 301 300 300 300 299 298 298 298 297 297 296
306 307 307 307 307 306 305 305 305 305 305 305 306 307 306 305 304 304 305 306 306 307 307 308 309 310 310 310 312 315 317 317 317 317 316 315 315 314 313 311 310 309 308 307 306 305 305 305 304 303 302 301 300 300 299 298 298 297 297 296 296 295 295
306 306 307 307 307 307 306 305 305 305 305 306 306 306 305 305 304 303 303 304 305 305 306 307 308 309 310 311 313 316 317 317 315 314 313 313 312 311 309 308 307 307 307 306 306 305 304 303 302 302 301 300 300 299 298 297 296 296 295 294 294 293 293
306 306 307 307 307 307 307 306 306 306 306 306 306 306 306 305 304 304 303 303 303 304 306 307 308 310 311 313 314 316 316 315 313 311 310 309 308 307 307 306 306 306 306 305 304 303 302 302 301 301 300 299 299 298 297 296 295 295 294 293 293 293 292
305 306 306 306 306 306 306 307 306 306 306 306 306 306 307 306 306 306 305 304 304 305 307 308 309 311 313 314 314 314 314 313 311 309 308 307 306 304 304 304 303 303 303 303 302 301 300 300 300 299 298 297 297 296 295 295 294 293 293 293 292 292 292
304 305 305 305 305 305 306 306 305 305 306 306 306 307 307 307 306 306 305 305 305 306 308 309 310 311 312 313 312 311 311 311 310 308 306 305 304 303 302 301 301 301 300 300 299 299 298 298 297 296 296 295 295 294 294 293 293 292 292 292 292 292 291
304 304 305 305 305 305 305 305 305 305 305 306 307 307 307 307 306 306 305 305 306 308 309 310 310 311 311 311 309 308 308 308 308 307 305 303 302 302 301 300 299 298 298 297 297 297 297 296 296 295 294 294 293 293 293 292 292 292 292 292 291 291 291
304 304 304 304 304 304 304 304 304 303 304 306 307 307 307 307 306 306 305 306 307 308 309 309 309 309 309 308 307 306 306 306 306 305 304 303 301 300 299 298 297 297 296 296 296 296 296 295 294 294 293 293 293 293 292 292 292 292 291 291 291 290 290
303 303 303 303 303 303 303 303 303 303 303 305 306 306 307 306 306 306 306 307 307 308 308 308 308 307 306 305 304 304 303 303 302 302 302 300 299 298 297 296 296 296 296 296 295 295 294 294 293 293 293 293 293 292 292 292 291 291 291 290 290 290 290

ECMWFFLT1_925_thetae_036.txt.gz
Theta_e
322 322 321 321 320 320 319 319 319 319 319 318 318 320 322 321 321 322 324 323 323 323 323 324 324 325 326 327 327 327 327 327 328 328 326 326 327 326 326 327 327 327 326 326 325 326 327 325 323 321 317 316 318 319 321 322 323 325 326 327 328 328 327
320 319 320 320 320 320 320 319 318 319 319 318 318 320 321 320 320 321 323 323 322 322 322 322 322 323 324 325 326 327 327 327 327 327 327 326 326 325 325 325 326 325 325 326 325 323 324 326 326 322 316 313 314 315 317 319 321 323 324 326 326 327 327
317 318 320 320 320 319 319 318 318 318 317 318 319 320 320 320 320 321 322 322 322 321 321 320 321 322 323 324 325 325 325 325 324 324 324 324 325 325 324 324 324 321 321 322 321 321 321 321 323 321 316 313 312 311 310 312 314 317 320 322 324 325 326
316 317 319 320 319 318 318 318 318 317 316 316 317 318 318 317 317 318 319 320 320 320 319 319 319 320 322 322 321 321 321 321 320 319 320 320 322 324 325 325 324 321 320 319 319 320 318 317 319 318 314 313 312 311 310 308 308 310 313 315 317 318 320
316 314 315 317 318 317 318 319 318 316 316 315 315 315 314 314 314 313 314 317 318 318 318 318 317 318 321 320 318 318 317 317 317 317 318 318 320 322 323 322 321 319 318 318 317 318 316 315 317 315 313 313 313 311 310 309 308 308 309 310 310 310 311
315 312 310 313 316 317 318 318 317 314 315 315 315 314 314 314 313 311 311 312 314 315 315 315 317 318 319 319 317 316 316 315 315 315 316 315 316 317 316 315 314 314 312 313 313 314 315 314 315 314 312 312 313 312 310 310 309 308 308 308 308 308 308
316 312 309 311 313 315 317 318 315 313 313 314 314 314 314 314 313 312 311 311 311 312 312 313 315 317 317 317 317 315 315 315 315 315 314 313 313 313 313 312 311 311 310 309 310 309 310 311 312 314 312 310 311 310 309 309 309 309 308 307 307 307 307
316 312 311 311 312 313 316 317 315 313 312 312 313 314 314 314 313 313 312 312 312 311 311 312 313 314 316 316 316 314 314 313 313 313 311 311 311 311 311 311 310 309 309 309 308 308 308 307 308 311 311 312 311 308 307 309 309 309 308 307 306 305 304
316 313 312 312 312 314 316 315 314 314 313 311 311 313 313 313 313 314 313 312 313 312 310 310 309 310 311 312 313 312 312 313 312 311 311 309 309 308 308 306 306 309 309 308 308 308 308 308 307 308 309 311 312 310 311 311 309 309 308 306 305 304 303
316 315 313 313 315 316 316 316 314 314 315 312 310 311 312 313 312 313 313 312 314 314 312 309 307 307 308 308 310 310 311 312 311 310 310 307 306 306 306 305 306 308 309 308 308 308 308 308 308 307 307 307 308 313 317 314 310 308 308 306 305 304 302
317 317 315 314 315 313 313 316 315 314 315 312 309 309 309 310 311 311 312 313 314 315 314 311 308 307 307 306 308 310 311 311 311 310 309 306 305 305 306 306 308 309 309 309 309 309 309 309 309 308 308 307 306 310 313 313 310 308 307 305 304 302 300
318 318 316 314 314 311 309 314 316 314 314 311 309 308 308 308 309 308 309 312 313 314 315 313 310 309 308 307 307 309 311 312 311 311 310 307 306 306 306 307 308 308 309 309 309 309 309 309 309 309 309 308 307 306 307 309 310 308 305 304 303 300 298
318 319 317 315 314 311 310 314 316 315 314 312 309 309 308 308 308 307 307 308 310 313 314 314 312 311 310 310 309 308 310 311 311 310 310 310 308 307 307 309 309 309 309 308 308 309 309 309 309 309 308 307 306 306 305 306 308 307 305 304 301 298 296
319 319 318 318 316 312 310 313 316 317 316 316 314 311 309 309 309 309 309 308 308 309 312 313 312 312 311 312 311 310 310 309 309 308 309 310 309 308 307 307 308 309 309 308 308 308 308 308 308 307 307 306 305 304 303 303 305 306 305 302 299 296 295
319 319 319 319 317 313 311 312 315 317 318 318 318 316 313 311 311 311 312 311 309 308 309 310 311 312 312 312 312 311 310 309 308 307 307 308 309 309 307 307 306 306 306 308 308 308 308 308 308 307 306 306 304 301 300 300 302 302 301 300 297 295 295
319 319 318 318 318 315 314 315 314 316 318 319 319 319 317 315 314 313 314 314 313 311 310 310 312 312 312 311 312 312 311 310 310 308 307 307 307 308 308 308 307 306 306 306 307 307 308 307 307 307 307 306 303 299 298 298 299 298 297 297 296 295 296
319 319 318 319 318 317 317 317 316 316 318 319 319 319 319 317 316 315 315 315 316 315 313 312 312 313 313 312 312 312 312 312 311 310 310 309 307 307 308 308 308 309 308 306 306 306 307 307 307 307 306 305 302 300 299 298 298 297 296 296 296 295 296
320 319 319 319 318 317 317 318 318 318 318 319 319 319 319 319 317 316 316 316 316 316 316 315 314 314 314 313 313 313 312 313 313 312 312 311 310 309 309 308 308 309 309 308 306 305 306 307 307 306 305 304 301 301 301 300 299 298 297 297 296 296 297
321 320 319 319 318 317 317 318 319 319 319 319 319 319 319 319 318 317 317 317 317 317 317 317 316 316 315 314 314 313 313 313 313 313 313 313 312 311 311 310 309 309 309 308 307 307 306 306 306 306 305 303 301 301 301 300 299 299 299 298 297 297 298
321 320 319 320 319 318 318 319 319 318 318 319 319 319 319 318 318 318 318 318 317 318 318 317 317 316 316 315 315 314 314 314 315 314 314 313 313 313 312 312 312 311 310 309 308 308 307 306 305 305 304 303 301 301 301 301 299 299 299 299 298 298 298
320 320 319 319 319 319 319 319 319 318 319 319 319 319 319 319 319 318 318 317 317 317 318 318 317 317 316 316 316 315 315 316 317 316 315 314 314 314 313 313 313 312 311 311 310 309 308 308 306 305 305 303 302 302 301 300 300 300 300 299 299 298 299
321 320 320 319 319 319 319 319 319 319 319 319 319 319 318 318 319 318 317 317 317 318 318 318 318 318 317 317 317 317 316 317 318 318 317 317 316 315 314 314 314 313 312 312 312 312 310 309 308 307 305 304 303 302 301 301 300 300 300 300 300 300 300
320 320 320 319 319 319 319 319 320 320 320 319 319 318 318 318 318 318 318 317 317 317 318 318 318 318 319 318 318 318 318 318 318 318 318 317 317 316 316 316 316 316 314 312 311 312 311 310 309 307 306 305 303 303 302 301 300 300 300 300 300 300 301
319 319 319 319 319 319 319 319 319 319 319 318 318 317 317 317 318 317 317 317 317 317 318 319 319 319 319 319 319 318 319 319 319 319 318 318 317 317 317 316 316 316 315 314 313 311 311 311 310 308 307 304 303 303 302 301 300 300 300 300 300 300 300
318 318 319 319 319 320 319 319 318 318 319 319 318 318 318 318 318 318 318 318 317 318 319 319 320 320 320 320 320 319 320 320 320 319 319 318 318 318 317 317 317 316 315 315 314 312 311 310 310 309 307 304 303 304 303 301 301 301 300 300 300 299 299
320 320 320 320 320 319 319 319 318 319 320 319 319 318 317 317 316 315 315 315 314 314 315 316 317 318 319 319 319 318 318 318 319 319 319 319 319 318 318 318 318 317 316 314 314 313 311 310 309 307 305 304 304 303 302 301 301 301 300 300 300 299 298
318 319 318 317 317 317 317 317 318 317 316 315 314 313 312 311 311 310 310 309 310 310 310 311 312 313 314 315 316 316 316 317 318 319 319 319 319 319 318 318 318 317 316 314 313 312 311 309 308 305 304 304 303 302 301 301 301 300 300 300 299 298 298
312 313 312 312 312 313 313 313 312 312 311 309 309 309 308 308 307 307 307 307 307 307 308 309 309 310 310 311 312 313 314 316 318 318 318 318 318 318 318 318 317 317 316 314 312 311 310 309 307 305 304 303 302 302 302 301 301 300 299 299 298 298 297
308 308 309 309 309 309 309 309 308 308 308 307 307 307 306 305 305 304 304 304 305 305 305 306 306 308 308 309 309 310 312 315 317 318 318 317 317 316 316 316 316 316 315 313 311 309 308 307 306 304 303 302 302 302 302 300 300 299 299 298 297 297 296
307 307 307 307 307 307 307 307 307 306 306 306 306 306 305 305 304 303 303 303 303 303 302 303 304 305 307 308 309 309 311 315 317 317 317 316 315 314 314 314 313 313 311 310 309 307 305 305 305 303 303 302 302 302 300 299 299 298 297 297 296 295 295
305 306 306 306 306 306 306 305 306 305 305 306 306 306 305 305 304 304 303 304 304 304 303 302 303 305 306 308 310 311 313 315 316 316 315 314 313 312 313 312 311 309 308 308 307 305 303 303 303 303 303 302 301 300 299 298 298 297 296 295 294 294 294
305 305 306 306 306 306 306 305 306 306 306 306 306 305 305 306 305 305 305 305 305 304 303 302 304 306 308 309 311 313 314 315 315 314 313 312 311 311 311 310 308 307 306 306 304 303 302 302 303 302 302 301 300 298 298 297 296 295 295 294 294 293 293
305 305 305 306 306 306 306 306 306 306 306 306 306 306 306 306 306 306 306 306 305 304 303 303 305 308 309 310 312 313 314 313 313 312 311 310 309 308 307 306 305 304 304 303 302 302 301 301 302 301 300 299 298 297 296 296 295 294 294 293 293 293 292
304 304 305 305 305 305 306 306 306 306 305 306 305 306 306 306 306 306 306 306 305 304 304 304 306 308 310 310 311 312 312 311 311 310 309 307 306 305 304 303 302 301 301 301 301 300 300 300 299 299 298 297 296 296 295 294 294 293 293 293 292 292 292
304 304 304 305 305 305 305 305 306 305 305 305 305 305 306 306 307 307 306 306 305 304 305 306 307 309 309 310 310 310 310 309 309 308 307 305 303 302 302 301 300 299 299 299 299 299 298 298 297 297 296 295 295 294 294 293 293 293 292 292 291 291 291
303 303 304 304 304 305 305 305 305 305 305 305 305 305 306 307 306 306 306 305 305 305 306 307 307 308 309 309 309 309 308 307 307 306 306 304 302 301 300 300 299 298 298 298 298 297 297 296 296 295 294 294 293 293 293 292 292 292 291 291 290 290 290
302 303 303 303 304 304 304 304 304 304 304 304 304 305 306 306 306 306 305 305 305 305 306 307 308 308 309 309 308 308 307 306 305 304 304 302 301 300 299 298 298 297 297 297 296 296 295 295 294 294 293 293 293 292 292 292 291 291 290 290 290 290 289

ECMWFFLT1_925_thetae_042.txt.gz
Theta_e
328 328 327 326 324 322 322 322 321 321 322 324 325 325 325 324 324 324 325 325 325 324 324 324 325 325 326 327 328 329 330 330 330 331 331 331 330 330 330 330 330 330 330 330 329 329 329 327 324 323 323 324 323 322 322 323 325 325 326 327 329 328 328
327 326 325 324 323 323 323 322 321 320 322 324 325 324 324 323 323 324 324 324 324 323 323 323 324 324 325 326 328 330 330 330 330 330 331 330 330 330 329 329 329 330 329 330 330 330 329 327 326 324 323 323 323 321 321 321 322 322 321 322 324 325 325
327 326 324 323 323 323 323 322 320 320 322 323 324 324 323 323 323 323 323 323 323 322 321 322 322 323 325 326 327 328 329 329 329 329 330 330 330 330 329 328 328 329 329 330 330 329 329 329 327 325 324 324 323 321 319 319 320 319 319 319 320 320 321
327 326 325 324 323 323 322 321 320 321 323 323 323 323 322 321 321 322 322 322 321 321 321 321 322 323 323 324 324 325 325 326 327 328 329 329 329 330 329 328 329 329 329 329 329 328 328 329 326 324 323 322 321 320 318 317 317 317 317 318 317 316 316
328 326 325 324 323 322 321 320 319 321 322 322 322 321 320 320 320 320 320 320 320 321 321 322 322 322 321 321 321 321 322 323 324 326 327 328 329 329 329 329 328 328 328 328 328 327 327 326 324 323 322 321 320 318 317 316 316 315 315 316 316 315 314
327 325 324 323 322 320 319 319 319 319 320 321 320 319 319 319 318 318 319 318 319 319 321 322 321 321 320 318 318 319 320 321 322 323 324 325 326 326 326 325 325 326 326 326 326 326 327 325 323 322 321 319 319 318 317 316 315 314 313 313 314 314 314
327 325 323 322 321 319 318 318 318 318 319 319 319 319 318 318 317 317 317 317 318 319 320 320 319 320 319 317 317 318 318 319 319 320 321 321 321 321 321 321 321 321 321 322 324 325 325 324 323 323 321 319 319 318 317 316 315 314 312 311 311 312 313
327 325 323 321 320 319 318 318 317 318 318 318 319 319 318 318 317 317 316 316 317 317 318 318 318 318 318 316 316 316 317 317 317 317 318 318 319 319 318 317 316 316 317 317 318 320 322 322 321 321 321 319 318 318 318 316 314 313 311 309 308 309 310
325 324 322 321 321 320 318 318 317 317 318 318 319 319 318 318 318 317 316 315 315 315 316 317 317 317 317 316 315 315 316 315 315 315 315 315 316 316 316 315 314 314 314 315 314 316 318 320 319 319 319 318 317 317 317 316 315 313 311 308 306 306 307
321 320 320 320 320 319 318 317 317 316 317 318 318 319 319 319 318 318 317 316 315 314 314 315 315 316 317 316 315 315 314 314 313 314 314 314 315 314 315 314 314 313 314 314 314 314 315 317 318 318 318 317 317 316 316 316 316 313 310 309 306 304 304
320 318 317 318 318 316 317 318 317 316 316 316 317 318 318 318 318 318 317 317 316 315 314 314 315 315 315 315 315 315 315 314 313 313 313 314 314 314 314 314 314 314 315 315 315 315 314 314 315 316 317 316 317 316 316 316 316 314 310 307 305 304 303
321 319 318 319 319 318 319 317 316 317 316 313 314 317 318 317 318 318 318 318 318 317 316 315 315 315 315 314 314 314 315 314 313 313 313 314 315 314 314 315 314 314 315 315 315 314 314 313 313 313 313 315 316 317 316 315 316 314 310 307 305 304 304
322 322 321 322 321 322 320 313 310 315 317 315 314 316 317 316 317 318 317 318 318 318 317 317 317 317 316 315 314 314 315 315 313 313 313 313 314 314 314 314 314 314 315 315 314 313 313 313 312 312 312 313 314 315 315 316 315 312 309 307 305 304 304
324 324 323 322 323 324 321 315 311 315 319 319 317 316 317 316 316 316 316 317 318 318 318 318 318 318 317 316 316 315 315 314 313 313 313 313 313 314 313 313 313 314 314 313 313 312 312 311 311 310 311 311 312 313 313 314 313 310 307 306 306 304 305
325 326 324 322 323 323 322 319 318 319 321 321 319 318 317 317 317 316 317 317 318 318 318 318 318 319 318 318 318 317 316 315 314 314 314 313 312 313 313 312 312 313 314 313 313 312 312 311 310 310 309 310 310 311 311 312 312 311 309 307 306 305 305
326 327 325 323 323 322 321 321 322 321 321 320 320 319 318 318 319 318 318 319 318 319 318 318 318 319 318 319 318 318 318 317 317 316 315 314 312 313 313 313 313 312 313 313 312 312 312 312 311 310 310 310 311 312 312 313 313 313 311 309 307 307 307
326 326 326 325 324 321 320 322 323 322 322 321 320 320 320 319 320 320 320 320 320 320 320 320 320 319 319 319 319 319 318 318 318 317 317 316 314 314 314 315 314 313 313 314 313 312 312 312 312 311 310 311 311 312 313 313 314 313 312 310 309 308 308
326 325 324 325 326 322 320 321 322 323 323 322 322 321 321 321 321 321 321 321 320 321 320 321 321 321 321 321 320 320 320 319 319 318 318 317 316 316 316 316 315 315 314 314 313 313 312 312 312 311 310 310 311 311 311 311 313 313 312 312 310 309 309
326 325 323 324 326 325 322 321 321 321 322 323 323 323 322 322 322 321 321 321 321 321 321 322 322 322 322 321 321 321 320 320 320 319 319 318 318 318 318 317 317 316 315 315 315 314 313 312 312 311 310 309 309 310 310 311 311 312 313 313 311 310 310
325 324 323 324 325 325 324 324 322 320 321 322 323 323 322 322 322 322 322 322 321 321 322 322 322 322 322 322 321 321 321 321 320 320 320 320 319 320 319 319 319 317 316 315 315 315 313 313 312 311 310 309 308 309 310 310 311 312 313 313 312 312 311
325 324 324 324 324 323 323 323 323 322 322 322 323 322 323 323 322 322 323 322 322 322 322 322 322 322 322 322 322 322 322 321 321 321 321 321 321 320 320 320 320 319 317 316 315 315 314 313 313 312 310 309 308 309 310 310 311 312 312 313 313 312 312
325 324 323 322 322 322 321 322 323 323 324 324 323 323 324 323 323 322 323 323 322 323 322 322 322 321 321 322 322 322 322 322 322 322 322 322 321 321 320 320 320 319 318 316 314 314 313 313 314 314 313 311 309 309 310 311 311 312 313 313 313 312 312
324 324 323 321 320 322 322 323 325 324 324 323 323 323 323 323 323 323 323 323 323 323 322 321 320 318 318 319 320 322 322 322 323 322 322 322 322 321 321 320 320 318 317 315 314 313 312 313 314 314 313 312 310 309 310 310 311 311 312 313 313 313 312
323 323 323 322 321 322 323 324 325 324 323 323 323 323 323 323 323 323 322 323 323 323 323 321 318 317 317 316 318 320 322 322 323 323 322 322 322 322 321 321 320 318 316 316 315 314 313 313 313 313 312 311 310 309 310 311 311 311 312 313 313 312 312
323 323 323 323 322 323 323 323 323 323 323 323 324 324 323 323 323 323 323 323 322 323 322 319 317 316 317 317 317 319 322 323 323 323 323 322 322 321 321 321 320 319 318 317 316 316 315 314 314 312 311 310 308 307 307 309 309 310 312 312 312 311 311
322 322 323 322 322 322 323 323 323 323 323 323 323 324 323 323 323 322 322 322 322 323 321 319 317 318 318 319 319 320 322 322 321 321 320 320 319 319 319 318 318 318 318 317 317 317 316 315 315 313 311 309 307 306 305 305 306 307 309 310 310 310 309
323 323 323 322 322 322 322 323 323 322 322 321 320 321 322 322 322 322 322 321 321 320 318 317 317 318 319 319 319 319 319 319 318 317 318 318 317 317 317 317 316 316 317 317 317 317 316 316 314 313 311 309 307 305 304 303 303 304 305 307 308 308 307
322 323 322 321 322 322 322 323 322 321 320 320 319 319 321 321 320 319 318 317 315 313 312 312 313 313 314 315 314 315 316 316 317 316 317 318 318 317 317 317 316 315 316 317 316 316 316 315 313 312 310 307 306 304 303 303 303 304 304 305 306 305 304
316 318 319 319 320 321 321 322 322 321 320 320 320 320 319 318 317 316 315 313 312 310 307 308 308 308 309 310 310 312 314 315 315 316 317 318 317 317 317 316 315 315 315 316 315 314 315 314 313 311 309 307 306 305 303 302 302 302 303 303 303 303 302
311 313 314 316 317 318 320 320 321 320 319 318 318 317 316 315 314 313 312 311 311 309 304 303 303 304 305 306 308 312 314 313 313 315 316 317 317 316 315 313 313 314 314 313 313 312 313 313 312 311 309 308 307 305 302 301 301 302 302 302 302 301 301
310 310 311 313 315 316 317 317 317 317 316 315 315 314 313 312 311 310 310 309 309 308 304 301 301 301 302 302 305 310 312 312 313 315 316 316 315 314 313 310 310 313 313 311 310 311 310 310 310 310 310 308 307 306 304 302 301 301 301 301 301 300 299
309 310 310 311 312 313 314 313 314 314 313 312 312 311 310 309 308 309 309 307 306 308 306 302 301 303 302 302 305 311 312 312 314 314 314 314 313 311 310 310 309 311 310 309 309 308 308 308 309 310 309 309 309 308 305 302 301 301 300 299 299 298 297
308 309 310 310 311 311 312 311 312 312 311 310 310 309 308 308 308 309 309 307 306 309 309 305 302 303 303 302 305 310 311 311 312 313 312 312 312 310 308 308 308 308 308 307 306 306 305 307 308 309 308 308 308 307 303 301 300 299 298 298 297 297 297
308 308 309 309 309 310 310 311 310 310 310 309 309 309 308 308 309 309 309 308 308 309 308 305 303 303 303 302 303 307 310 311 310 311 311 310 311 310 307 305 305 306 305 305 305 304 303 303 304 305 305 305 304 303 300 299 298 297 297 298 298 298 298
307 307 308 308 308 309 309 310 311 310 309 309 309 310 309 310 310 309 308 308 307 306 305 304 304 303 303 304 303 305 309 310 309 309 310 309 309 309 306 303 303 303 302 302 302 302 302 301 302 302 301 301 300 298 298 299 298 298 298 299 298 298 298
306 307 307 307 308 308 309 310 310 310 310 310 310 310 310 309 310 309 308 308 307 305 303 303 304 304 305 305 304 304 306 306 306 308 309 309 308 307 304 302 302 301 300 301 301 300 300 300 300 299 299 298 297 296 297 298 298 298 299 298 298 298 298
305 306 305 306 306 307 308 309 309 310 310 310 309 309 309 309 309 309 309 309 308 306 305 304 304 305 306 306 305 304 304 304 305 308 309 308 308 306 303 302 301 299 299 299 299 298 298 298 298 298 297 295 295 295 297 298 298 297 297 297 297 297 297

ECMWFFLT1_925_thetae_045.txt.gz
Theta_e
328 328 327 325 323 323 322 321 322 324 325 325 325 324 324 325 326 326 327 326 325 324 324 325 326 327 327 328 331 331 330 330 330 330 329 328 328 330 330 329 330 331 330 329 329 329 328 328 327 326 326 326 326 326 326 326 326 326 326 326 327 327 326
326 325 325 323 323 323 323 322 322 323 325 324 324 324 324 324 325 325 326 325 324 323 322 324 325 326 327 328 330 331 331 331 330 329 329 329 327 329 330 329 329 330 329 328 329 330 329 327 326 325 325 326 325 325 326 325 325 324 324 325 325 324 322
324 323 323 323 323 323 323 322 322 323 324 324 324 324 324 324 324 324 324 324 323 322 322 323 324 326 326 327 327 329 329 330 331 330 330 330 329 328 329 329 328 329 329 328 328 327 328 328 328 326 325 325 324 323 323 323 323 323 322 322 323 321 319
324 324 323 324 323 322 322 322 323 324 324 324 323 322 322 322 323 322 322 322 322 322 323 323 324 324 324 324 325 326 326 327 329 330 330 330 330 329 327 328 327 327 327 328 327 326 326 329 329 326 324 324 322 321 321 321 321 320 320 320 320 320 318
325 324 324 324 324 322 322 322 324 324 324 323 321 321 321 321 321 321 320 320 322 324 324 323 322 321 321 321 322 323 324 325 326 327 328 329 329 328 327 327 328 327 326 327 327 326 327 327 327 325 323 322 321 320 319 318 318 318 318 318 318 318 317
325 324 324 324 323 322 321 322 323 323 323 322 319 319 320 320 320 320 320 320 322 323 322 322 322 320 319 320 320 321 322 323 324 325 326 326 326 325 325 326 326 326 326 326 326 326 328 326 324 323 322 321 320 319 318 317 316 316 316 316 317 318 317
326 324 323 323 322 321 321 321 322 322 322 320 319 318 319 318 318 319 320 320 320 320 320 321 321 320 318 318 319 320 320 320 321 322 322 323 323 322 322 322 322 322 323 324 324 326 327 326 323 323 322 321 321 319 318 317 315 314 313 314 316 317 316
326 324 323 322 321 320 321 321 321 321 320 320 319 318 318 318 318 318 318 319 319 319 319 319 319 319 318 317 318 318 318 318 318 318 319 319 320 319 319 318 319 319 319 319 321 323 324 323 322 322 321 320 320 319 318 316 314 313 312 312 313 314 314
326 323 322 321 320 320 320 320 320 320 319 318 319 319 318 318 317 316 316 317 317 318 319 318 318 318 318 317 317 317 315 316 317 317 316 317 317 317 317 316 315 316 316 316 317 319 321 321 320 320 320 319 317 317 317 316 314 313 311 310 310 311 311
326 323 322 322 321 321 320 320 320 320 319 319 319 319 319 318 317 316 316 316 316 317 317 317 318 318 317 316 316 315 314 314 315 316 316 316 316 317 317 316 316 315 316 316 316 317 318 319 320 319 319 317 317 317 317 317 316 313 312 310 308 308 308
326 323 323 323 322 321 320 320 320 320 319 319 319 319 319 318 318 317 316 316 316 317 316 316 316 316 316 316 316 316 315 315 315 315 316 316 316 317 317 316 316 316 316 316 315 316 315 316 317 318 317 317 318 318 317 317 316 314 312 310 308 307 307
327 323 322 324 322 321 320 319 319 319 319 319 319 319 319 318 318 318 317 317 316 317 317 317 316 316 316 316 316 316 316 315 315 315 316 316 316 316 318 317 317 317 317 316 315 315 315 314 314 314 315 316 318 318 317 317 317 314 312 309 308 308 308
327 323 321 322 321 321 321 320 319 320 319 319 319 319 318 318 318 318 318 317 317 318 318 317 317 317 317 316 316 316 316 315 315 315 315 316 316 316 316 316 317 318 316 315 314 314 314 314 314 313 314 315 316 317 317 318 316 314 311 309 308 308 308
328 325 321 320 320 321 322 322 322 321 319 319 319 318 317 317 318 318 318 318 318 318 319 319 318 318 317 317 316 316 316 315 314 314 315 315 316 315 315 314 316 317 316 315 314 313 313 313 313 313 314 314 314 315 316 316 315 312 311 310 309 309 309
328 326 323 320 320 322 322 321 322 321 320 319 319 318 317 317 318 318 318 319 318 318 319 319 319 319 318 318 318 317 317 316 315 315 315 315 314 315 315 315 314 315 315 315 315 314 313 313 313 312 313 314 314 314 314 314 313 313 312 311 311 310 310
328 327 326 322 321 324 321 319 319 320 321 320 318 318 317 317 318 318 318 319 319 319 319 320 321 320 319 319 319 319 318 317 317 317 316 315 314 315 316 315 314 314 315 315 315 314 314 314 314 314 314 315 315 315 316 316 316 316 314 313 312 311 311
328 328 328 324 322 323 323 320 320 321 322 321 319 319 318 318 318 318 319 319 319 320 320 320 321 321 321 320 320 320 319 319 319 318 317 316 315 315 316 316 316 315 315 315 315 314 315 316 315 315 315 316 316 316 317 317 316 316 315 314 313 312 312
329 329 328 326 323 322 322 322 321 321 321 321 321 320 319 319 319 319 320 320 320 320 320 321 321 321 322 322 321 321 320 320 320 320 319 319 318 317 318 318 317 316 316 316 315 314 316 316 315 315 315 315 315 316 316 316 316 316 316 315 314 313 313
329 328 327 327 325 323 321 321 322 322 321 320 321 321 320 320 321 321 321 320 320 320 321 321 322 322 322 322 322 322 322 322 322 322 321 321 319 319 320 319 319 318 318 317 317 316 316 316 315 315 315 313 313 315 315 315 316 316 316 316 315 314 314
328 327 326 326 326 326 322 320 320 321 321 321 321 321 321 321 321 321 320 320 321 321 321 321 322 323 323 324 323 323 323 323 322 322 322 322 321 321 321 321 320 320 319 318 318 318 317 316 315 315 315 312 311 313 314 315 315 315 316 316 315 315 314
326 326 326 325 326 326 324 322 321 320 320 321 321 321 321 321 321 321 321 321 322 322 322 322 323 324 324 324 324 323 323 323 322 322 322 322 322 322 322 322 321 321 321 319 319 318 317 317 316 316 315 313 312 313 314 314 315 315 315 315 315 315 314
326 326 325 325 325 325 325 324 324 323 322 321 321 321 321 320 322 322 322 323 322 322 323 323 323 323 323 323 324 324 323 324 323 322 322 323 323 323 323 323 322 323 322 320 319 318 317 317 317 318 317 315 314 314 313 313 314 315 315 316 315 315 314
325 325 326 326 325 326 326 325 325 324 324 323 322 321 320 321 322 322 323 324 323 323 324 323 322 322 322 323 324 324 324 324 323 323 323 323 323 323 323 323 323 322 322 321 319 317 316 315 315 317 318 317 315 314 314 314 315 315 315 315 315 315 315
325 324 325 325 325 325 325 325 324 323 322 323 322 322 322 324 324 323 323 323 322 322 323 323 323 322 321 321 321 323 324 324 323 322 321 321 322 323 323 323 323 322 321 320 319 317 316 315 314 315 316 315 314 314 314 314 315 315 315 315 315 315 314
325 324 325 325 325 324 324 324 323 322 321 322 322 322 323 323 323 322 321 320 322 321 321 323 324 321 320 319 318 319 321 322 322 320 319 319 320 321 321 322 322 322 320 319 318 318 317 316 316 315 315 314 313 313 312 312 312 313 313 314 315 314 314
325 325 325 325 324 323 323 323 322 322 322 322 322 322 322 322 322 321 320 321 322 320 320 323 323 320 318 317 317 317 318 321 321 319 317 318 318 318 319 320 321 321 320 319 318 319 318 317 317 316 315 314 313 312 312 310 310 310 310 311 313 313 313
325 325 324 324 324 322 322 323 321 321 321 321 321 321 321 322 323 322 321 321 321 320 320 321 320 318 317 318 319 318 319 320 319 317 316 317 318 318 318 318 318 319 319 318 318 319 318 317 317 316 315 314 313 312 312 310 309 308 308 308 309 311 312
323 324 324 324 324 323 322 321 321 321 322 321 321 321 321 323 324 323 322 321 320 320 320 319 319 319 319 320 320 319 318 318 317 316 316 316 316 316 317 317 315 315 317 318 318 318 317 316 316 316 315 314 313 311 309 308 307 306 307 307 308 310 310
318 320 321 321 322 322 322 322 322 323 322 321 322 322 321 322 323 322 321 320 318 317 316 315 316 317 317 317 317 316 316 316 315 315 315 316 316 316 317 317 315 314 316 317 316 313 312 313 314 315 315 314 313 310 308 307 306 305 307 308 308 308 307
313 314 315 316 317 319 321 322 323 324 322 322 323 322 321 321 321 320 319 318 316 315 312 312 313 312 312 313 312 312 314 315 314 314 315 316 316 316 316 315 313 314 316 315 311 308 308 311 314 315 314 312 312 310 307 306 305 304 304 305 305 304 304
311 312 312 313 315 316 317 318 320 321 321 321 321 320 319 319 318 318 317 316 315 313 310 308 308 308 308 308 307 310 313 313 312 314 314 315 315 315 315 313 311 314 315 312 309 307 308 311 314 314 313 311 311 310 308 306 304 303 302 303 303 303 303
311 311 311 312 314 314 314 315 316 317 317 317 317 317 316 317 316 315 315 313 313 312 307 303 302 303 303 302 303 308 312 311 312 313 313 314 315 314 313 311 310 311 312 309 308 308 309 311 313 313 312 310 310 310 309 307 305 304 303 303 303 303 302
311 311 311 312 312 313 313 313 314 314 314 314 314 314 314 314 313 313 313 312 310 310 307 302 300 301 301 300 303 309 312 312 312 313 312 313 314 313 311 309 309 309 309 308 308 308 308 309 311 311 311 310 309 310 309 307 306 305 304 304 304 303 303
310 310 311 311 312 312 312 313 313 313 312 312 312 312 312 311 310 310 311 311 309 309 309 306 302 302 302 302 305 310 312 311 311 312 312 311 312 312 310 308 308 308 308 308 308 307 307 308 310 310 308 307 306 306 306 305 304 303 302 303 303 303 303
309 309 309 310 311 311 311 311 311 311 312 311 310 311 310 310 310 309 310 310 308 310 311 308 304 303 302 303 304 307 310 311 310 310 311 310 311 311 308 307 307 307 307 307 306 306 305 306 306 306 305 303 303 303 303 303 303 303 302 303 303 303 302
307 308 308 309 309 309 310 310 310 311 311 311 310 310 310 310 309 309 309 309 309 310 312 310 306 303 303 303 302 305 311 311 308 308 310 309 309 309 307 306 307 307 305 305 304 304 303 303 303 303 302 302 302 301 301 301 302 302 302 302 301 301 301
306 306 307 308 308 308 308 309 310 310 311 311 310 311 310 310 310 309 309 310 309 310 312 311 306 303 303 303 302 305 309 307 304 307 309 309 310 308 306 306 306 305 304 303 303 302 302 302 301 301 301 300 299 299 300 301 301 301 301 300 300 300 300

ECMWFFLT1_925_thetae_048.txt.gz
Theta_e
328 327 326 324 323 322 322 323 325 325 325 325 325 325 325 326 326 326 326 326 325 325 326 326 327 328 328 329 330 329 330 330 329 329 329 328 328 328 329 329 329 330 330 330 330 331 330 329 327 326 326 326 327 327 327 326 326 327 326 326 326 327 327
328 326 325 324 323 322 322 323 325 326 325 324 324 325 325 325 325 325 325 325 324 323 325 326 327 327 328 328 329 330 330 329 329 330 329 328 329 329 329 328 328 329 328 329 329 329 329 329 328 326 325 326 326 326 325 325 325 325 322 321 322 323 324
326 325 324 323 324 324 324 323 324 325 325 325 324 324 325 325 324 324 324 323 323 324 324 325 326 326 326 326 327 329 330 330 330 330 329 329 329 329 328 327 327 328 327 328 328 328 328 328 328 326 325 325 326 325 324 324 324 324 322 319 318 318 318
324 324 324 324 324 324 323 323 324 325 325 324 323 323 323 323 322 322 322 323 323 324 324 323 324 324 324 325 326 327 328 329 329 329 328 328 328 328 327 327 327 328 328 327 327 327 328 328 328 327 323 323 324 324 322 320 320 321 320 319 317 315 314
324 324 324 324 323 323 323 324 325 324 324 322 321 321 322 321 320 320 323 324 324 323 322 322 321 322 322 323 324 325 326 327 327 327 327 326 327 327 328 327 326 327 327 328 327 327 329 328 327 325 322 320 321 321 320 319 319 319 319 318 317 316 315
324 324 324 324 323 323 323 325 325 324 322 321 320 321 321 321 321 320 322 323 323 323 322 321 320 320 321 322 322 323 324 325 325 324 324 324 324 325 326 325 325 325 326 327 328 328 327 325 325 324 321 319 319 318 318 318 317 317 318 317 317 316 315
324 324 324 324 323 322 323 324 325 324 321 320 320 319 320 320 320 321 320 321 320 321 321 320 318 318 319 320 320 320 320 320 321 322 321 321 320 321 322 321 322 322 324 325 326 325 324 323 324 323 321 320 319 317 316 315 314 315 317 317 317 316 316
324 324 324 324 323 321 322 323 323 322 320 319 319 319 318 319 319 319 320 319 320 320 319 319 317 317 318 318 317 318 318 317 318 319 318 318 317 317 318 318 318 318 321 323 324 323 323 323 323 321 321 323 322 319 316 313 313 313 314 315 315 315 314
324 323 323 322 321 321 322 322 322 322 320 319 319 318 318 317 317 317 318 318 319 318 319 318 317 317 317 316 315 316 317 317 316 317 317 317 316 316 316 316 316 316 317 319 321 321 322 322 321 321 321 321 322 322 318 315 313 311 312 313 313 313 312
324 324 323 322 321 321 322 322 321 320 319 319 319 318 317 317 316 316 317 317 317 317 318 318 317 317 315 315 315 315 315 316 316 317 317 317 317 316 316 316 316 316 316 316 317 318 319 320 320 320 319 318 319 322 320 319 317 312 309 311 310 310 310
325 323 323 322 321 321 321 321 320 319 319 319 319 318 318 317 316 316 316 317 317 317 317 317 316 316 316 316 316 315 316 316 316 317 317 317 318 317 317 317 316 315 315 315 315 315 316 317 318 317 317 318 318 320 319 318 317 312 308 309 308 308 309
325 323 323 322 322 321 321 321 321 320 319 319 319 319 318 318 317 317 317 317 317 317 317 316 316 316 316 316 316 315 315 316 316 316 316 317 318 318 318 318 316 316 315 315 315 315 314 315 315 315 316 317 318 318 315 315 317 314 309 308 308 308 308
324 323 324 323 322 321 321 321 321 320 319 320 319 319 319 319 318 317 317 317 317 318 317 317 316 317 317 317 316 316 315 316 316 316 316 316 316 316 317 317 317 315 315 314 314 314 314 314 315 314 315 316 317 318 315 313 314 313 309 308 308 308 308
325 323 324 323 322 321 321 320 320 320 320 320 320 319 319 319 318 318 317 317 318 318 318 318 318 318 317 317 317 316 315 315 315 316 316 316 316 315 316 316 316 315 315 316 314 313 313 313 314 314 315 315 315 316 315 312 312 311 310 309 309 309 309
325 322 323 322 321 321 321 320 320 320 320 319 319 319 318 318 319 318 318 318 318 319 319 319 318 318 317 317 317 317 316 316 316 315 315 315 316 316 315 315 315 315 315 315 315 314 314 314 313 314 315 315 315 316 314 312 311 311 311 310 310 310 311
325 322 321 321 320 321 322 322 322 321 320 319 319 319 318 318 319 318 318 318 318 319 319 319 319 318 318 318 318 318 317 316 316 315 315 315 315 315 315 314 314 315 315 315 315 314 315 316 315 315 316 316 317 317 316 314 313 312 312 312 312 311 312
326 324 322 319 319 322 323 323 322 320 320 319 318 318 318 318 318 318 319 319 318 318 319 320 320 319 318 319 319 319 318 318 317 317 316 316 315 315 316 316 315 315 316 315 315 315 315 316 316 316 316 317 317 317 317 316 315 315 314 314 313 312 312
326 326 324 320 320 323 322 319 318 319 321 320 318 318 318 317 318 318 319 319 319 319 319 320 321 320 320 320 320 319 320 319 319 318 318 317 316 316 317 317 316 316 316 316 314 315 316 316 316 316 315 316 316 316 317 316 316 316 316 315 314 314 313
327 327 326 323 323 323 321 317 315 318 322 321 319 319 318 317 318 318 319 319 319 320 320 320 321 321 321 322 321 321 320 321 321 321 320 320 319 318 318 319 318 317 317 317 316 316 317 316 316 316 315 315 316 316 316 316 316 316 316 316 315 314 314
327 327 327 326 325 323 321 319 318 319 322 322 321 321 320 319 319 319 319 320 319 320 320 320 321 321 322 322 323 322 322 322 322 322 322 321 320 320 320 320 320 319 318 318 318 317 317 316 317 315 314 314 314 315 315 315 315 316 316 316 315 315 314
327 327 327 326 326 324 323 322 321 321 321 320 321 321 321 319 320 320 320 320 320 320 320 321 321 322 322 322 323 324 323 323 323 323 323 322 322 321 321 321 321 320 320 319 318 318 317 316 316 315 314 314 313 314 314 315 315 315 315 315 315 315 315
326 325 325 324 324 323 323 323 322 321 321 321 321 321 321 320 320 320 320 320 320 321 321 321 320 321 322 322 322 323 323 323 323 322 322 322 322 321 320 320 320 320 320 320 319 319 318 317 316 317 317 316 315 315 314 314 315 315 315 316 316 315 315
325 325 324 324 323 322 322 323 323 322 323 324 322 321 321 320 320 321 321 321 321 321 320 320 320 321 322 322 321 323 323 322 321 321 320 321 322 320 320 320 320 320 321 320 319 319 318 317 317 318 318 318 317 316 315 314 315 315 315 315 315 315 315
324 324 324 324 323 323 323 324 323 323 324 324 323 322 322 321 321 321 321 322 321 321 320 320 320 322 322 322 322 323 322 321 321 320 320 321 321 321 319 319 319 320 321 320 320 320 319 318 317 316 318 318 316 315 315 315 315 315 315 315 315 315 315
324 325 324 324 323 323 323 324 324 324 323 323 323 322 322 322 322 322 322 321 321 320 319 318 319 320 319 319 321 322 321 321 321 321 320 319 320 320 319 319 319 320 321 321 320 320 319 318 317 315 315 317 316 315 314 314 314 314 314 314 313 314 314
324 325 325 324 324 323 323 323 323 323 323 322 322 322 322 322 323 323 322 321 320 320 319 319 320 318 315 316 321 322 320 319 319 319 319 319 319 319 319 319 318 319 321 320 319 320 319 318 317 316 315 315 315 314 314 313 313 312 312 311 310 311 312
324 324 324 324 323 323 322 322 322 323 323 323 322 321 321 322 322 322 322 321 320 319 318 318 318 317 315 317 320 320 318 317 317 318 317 317 317 317 318 318 317 319 321 319 317 319 320 318 317 316 316 315 315 315 314 313 313 312 311 310 309 309 311
322 323 323 322 322 321 322 322 322 322 323 322 322 322 322 322 322 322 322 322 321 319 318 318 318 318 318 319 319 318 317 317 318 317 317 316 317 317 318 317 317 319 320 319 318 319 319 318 318 317 315 314 314 315 314 313 312 311 310 309 308 309 310
318 320 321 321 322 322 322 323 322 322 322 322 322 322 322 322 322 321 322 322 321 321 321 320 318 318 319 318 319 319 318 317 317 317 316 317 317 317 317 316 317 319 319 319 318 318 316 315 316 317 316 314 314 314 312 311 310 309 308 308 308 309 310
313 314 315 316 318 321 322 322 322 321 322 322 322 321 321 321 321 321 322 321 321 321 321 320 319 318 319 319 319 318 316 316 317 317 316 317 317 317 316 315 316 317 318 317 314 312 309 308 311 315 316 314 313 313 311 310 309 308 307 307 308 308 308
312 313 313 313 314 316 318 319 320 321 321 321 321 321 320 320 320 321 321 321 320 318 318 318 318 317 317 317 317 314 312 315 317 315 315 316 317 316 316 314 314 315 316 313 310 307 305 305 310 314 314 313 312 312 311 310 309 308 306 305 305 305 304
312 312 312 313 313 314 314 315 317 318 319 319 319 320 319 319 319 320 320 319 318 316 315 315 315 315 314 313 313 310 310 313 314 314 315 316 316 315 314 313 312 314 314 311 308 307 305 306 311 314 313 312 312 311 310 309 308 307 306 305 304 304 303
311 311 311 311 312 312 313 312 313 315 316 316 316 317 317 317 318 318 318 318 317 316 313 312 312 312 310 309 309 307 307 310 313 313 314 315 314 313 313 312 312 311 311 309 307 307 306 307 311 312 311 310 311 309 309 308 307 307 306 305 304 304 303
309 309 309 310 310 311 312 312 312 312 313 314 314 314 315 315 315 316 316 316 315 314 312 311 308 306 304 304 303 303 303 308 312 313 313 314 314 313 311 311 311 310 309 308 307 306 306 307 310 310 309 308 309 308 307 306 306 306 305 304 303 304 303
307 307 308 308 309 309 310 310 311 311 311 312 312 312 313 312 313 313 313 313 313 312 311 309 305 301 301 301 301 302 304 308 312 313 312 312 313 312 311 310 309 309 308 307 306 307 307 307 308 308 307 306 305 305 305 304 304 304 304 303 303 303 303
304 305 307 307 308 308 309 308 309 310 310 311 311 311 312 311 311 311 311 312 312 310 310 310 306 302 301 301 302 304 307 309 310 310 310 311 311 311 310 309 308 307 307 306 306 306 306 306 306 306 305 303 303 302 301 301 302 303 303 303 302 302 301
304 304 305 306 306 308 308 308 308 308 308 310 310 311 312 311 311 311 310 311 311 310 310 311 308 305 302 302 303 304 306 308 310 308 309 310 310 310 310 308 306 306 307 306 305 305 305 305 304 304 303 303 302 301 300 300 301 302 302 301 301 300 300